This is the latest recevied weather packets stored in our database for station/object OE-11061. If no packets are shown the sender has not sent any weather packets the latest 10 day(s).
| Time | Temp. | Humidity | Pressure | Rain* | Wind** | Luminosity | Snow |
|---|---|---|---|---|---|---|---|
| 1788087321 | 25° C | 52% | 1015.5 hPa | 0 mm | - | 769 W/m² | - |
| 1788086494 | 25.56° C | 52% | 1015.5 hPa | 0 mm | - | 762 W/m² | - |
| 1788086121 | 25.56° C | 54% | 1015.8 hPa | 0 mm | - | 754 W/m² | - |
| 1788085521 | 25.56° C | 54% | 1015.9 hPa | 0 mm | - | 747 W/m² | - |
| 1788084694 | 25° C | 54% | 1016 hPa | 0 mm | - | 702 W/m² | - |
| 1788084321 | 25° C | 56% | 1016 hPa | 0 mm | - | 695 W/m² | - |
| 1788083720 | 25° C | 55% | 1016.2 hPa | 0 mm | - | 732 W/m² | - |
| 1788082894 | 25° C | 53% | 1016.3 hPa | 0 mm | - | 702 W/m² | - |
| 1788082521 | 24.44° C | 57% | 1016.3 hPa | 0 mm | - | 680 W/m² | - |
| 1788081921 | 23.89° C | 52% | 1016.4 hPa | 0 mm | - | 665 W/m² | - |
| 1788081094 | 23.89° C | 60% | 1016.5 hPa | 0 mm | - | 650 W/m² | - |
| 1788080721 | 24.44° C | 59% | 1016.6 hPa | 0 mm | - | 627 W/m² | - |
| 1788080121 | 23.33° C | 58% | 1016.7 hPa | 0 mm | - | 612 W/m² | - |
| 1788079294 | 22.78° C | 58% | 1016.8 hPa | 0 mm | - | 575 W/m² | - |
| 1788078920 | 22.22° C | 62% | 1017 hPa | 0 mm | - | 545 W/m² | - |
| 1788078321 | 22.22° C | 63% | 1017 hPa | 0 mm | - | 575 W/m² | - |
| 1788077493 | 21.11° C | 61% | 1017.3 hPa | 0 mm | - | 545 W/m² | - |
| 1788077121 | 21.11° C | 64% | 1017.3 hPa | 0 mm | - | 530 W/m² | - |
| 1788076521 | 20.56° C | 67% | 1017.5 hPa | 0 mm | - | 500 W/m² | - |
| 1788075694 | 20.56° C | 70% | 1017.5 hPa | 0 mm | - | 485 W/m² | - |
| 1788075320 | 19.44° C | 70% | 1017.6 hPa | 0 mm | - | 485 W/m² | - |
| 1788074721 | 18.33° C | 75% | 1017.8 hPa | 0 mm | - | 351 W/m² | - |
| 1788073894 | 17.78° C | 80% | 1017.7 hPa | 0 mm | - | 224 W/m² | - |
| 1788073521 | 17.78° C | 80% | 1017.8 hPa | 0 mm | - | 194 W/m² | - |
| 1788072921 | 17.22° C | 79% | 1017.8 hPa | 0 mm | - | 254 W/m² | - |
* Rain latest hour (hover to see other rain measurements)
** Current wind speed in m/s (hover to see current wind gust speed)